Change the Weather History Date:

Thursday, August 30, 2012

  Actual Average Record
Temperature  
Mean Temperature 65 °F 69 °F  
Max Temperature 80 °F 80 °F 98 °F (1953)
Min Temperature 49 °F 57 °F 38 °F (1986)
Degree Days  
Heating Degree Days 0 1  
Month to date heating degree days 2 8  
Since 1 June heating degree days 33 62  
Since 1 July heating degree days 2 13  
Cooling Degree Days 0 0  
Month to date cooling degree days 231 198  
Year to date cooling degree days 803 601  
Since 1 June cooling degree days 708 565  
Growing Degree Days 14 (Base 50)    
Moisture  
Dew Point 52 °F    
Average Humidity 65    
Maximum Humidity 96    
Minimum Humidity 33    
Precipitation  
Precipitation 0.00 in 0.12 in 0.79 in (1970)
Month to date precipitation 3.59 4.09  
Year to date precipitation 22.18 30.67  
Sea Level Pressure  
Sea Level Pressure 30.04 in    
Wind  
Wind Speed 3 mph (SW)    
Max Wind Speed 12 mph    
Max Gust Speed 15 mph    
Visibility 10 miles    
Events      
T = Trace of Precipitation, MM = Missing Value Source: NWS Daily Summary

Daily Weather History Graph

Daily Weather History Graph

Search for Another Location

Airport or City:

Trip Planner

Search our weather history database for the weather conditions in past years. The results will help you decide how hot, cold, wet, or windy it might be!

Date:

Astronomy

Aug. 30, 2012 Rise Set
Actual Time 6:19 AM EDT 7:31 PM EDT
Civil Twilight 5:51 AM EDT 7:59 PM EDT
Nautical Twilight 5:17 AM EDT 8:33 PM EDT
Astronomical Twilight 4:40 AM EDT 9:09 PM EDT
Moon 6:43 PM EDT (8/30) 5:18 AM EDT (8/30)
Length of Visible Light 14h 08m
Length of Day
13h 11m
Waxing Gibbous, 99% of the Moon is Illuminated
Aug 30
Waxing Gibbous
Aug 31
Full
Sep 8
Last Quarter
Sep 15
New
Sep 22
First Quarter

Hourly Weather History & Observations

Time (EDT) Temp. Dew Point Humidity Pressure Visibility Wind Dir Wind Speed Gust Speed Precip Events Conditions
12:53 AM 55.0 °F 52.0 °F 89% 30.02 in 10.0 mi Calm Calm - N/A   Clear
1:53 AM 53.6 °F 51.8 °F 94% 30.03 in 10.0 mi Calm Calm - N/A   Clear
2:53 AM 52.0 °F 50.0 °F 93% 30.02 in 10.0 mi Calm Calm - N/A   Clear
3:53 AM 51.1 °F 48.9 °F 92% 30.03 in 10.0 mi Calm Calm - N/A   Clear
4:53 AM 51.1 °F 48.9 °F 92% 30.01 in 10.0 mi Calm Calm - N/A   Clear
5:53 AM 48.9 °F 46.9 °F 93% 30.05 in 10.0 mi Calm Calm - N/A   Clear
6:53 AM 50.0 °F 48.0 °F 93% 30.07 in 10.0 mi Calm Calm - 0.01 in   Clear
7:53 AM 55.0 °F 50.0 °F 83% 30.09 in 10.0 mi Calm Calm - N/A   Clear
8:53 AM 60.1 °F 54.0 °F 80% 30.09 in 10.0 mi Calm Calm - N/A   Clear
9:53 AM 64.9 °F 55.0 °F 70% 30.09 in 10.0 mi Calm Calm - N/A   Clear
10:53 AM 70.0 °F 54.0 °F 57% 30.09 in 10.0 mi Calm Calm - N/A   Clear
11:53 AM 72.0 °F 55.0 °F 55% 30.09 in 10.0 mi WSW 4.6 mph - N/A   Clear
12:53 PM 75.0 °F 53.1 °F 46% 30.07 in 10.0 mi WSW 6.9 mph - N/A   Clear
1:53 PM 75.9 °F 52.0 °F 43% 30.06 in 10.0 mi SSE 5.8 mph - N/A   Clear
2:53 PM 79.0 °F 52.0 °F 39% 30.03 in 10.0 mi WSW 6.9 mph - N/A   Clear
3:53 PM 80.1 °F 48.9 °F 34% 30.03 in 10.0 mi WSW 8.1 mph - N/A   Clear
4:53 PM 80.1 °F 48.0 °F 32% 30.02 in 10.0 mi WSW 5.8 mph - N/A   Clear
5:53 PM 79.0 °F 53.1 °F 40% 30.02 in 10.0 mi WSW 8.1 mph - N/A   Clear
6:53 PM 77.0 °F 53.1 °F 43% 30.01 in 10.0 mi Calm Calm - N/A   Clear
7:53 PM 70.0 °F 55.9 °F 61% 30.02 in 10.0 mi Calm Calm - N/A   Clear
8:53 PM 64.0 °F 57.9 °F 80% 30.03 in 10.0 mi Calm Calm - N/A   Clear
9:53 PM 61.0 °F 57.9 °F 90% 30.03 in 10.0 mi ESE 3.5 mph - N/A   Clear
10:53 PM 64.9 °F 55.9 °F 73% 30.02 in 10.0 mi SSW 3.5 mph - N/A   Clear
11:53 PM 66.9 °F 55.0 °F 66% 30.02 in 10.0 mi South 4.6 mph - N/A   Clear